Location: Bacea
(45.9500°N, 22.6667°E)
Time: 00:39:58
(UTC+00:00)

JILIN-01-06 - Visible Passes

Search period start: 15 August 2022 00:00
Search period end: 25 August 2022 00:00
Orbit: 522 x 539 km, 97.5° (Epoch: 14 August)

Date Brightness Start Highest point End Pass type
(mag) Time Alt. Az. Time Alt. Az. Time Alt. Az.
15 Aug ? 20:55:59 25° NE 20:55:59 25° NE 20:58:10 10° N visible
15 Aug ? 22:31:18 14° NW 22:31:18 14° NW 22:32:12 10° NW visible
16 Aug ? 20:45:48 21° NE 20:45:48 21° NE 20:47:48 10° NNE visible
16 Aug ? 22:21:07 17° NW 22:21:07 17° NW 22:22:18 10° NW visible
17 Aug ? 20:35:37 17° NE 20:35:37 17° NE 20:37:22 10° NNE visible
17 Aug ? 22:10:56 19° NW 22:10:56 19° NW 22:12:18 10° NNW visible
18 Aug ? 20:25:26 14° NE 20:25:26 14° NE 20:26:49 10° NNE visible
18 Aug ? 22:00:45 22° NNW 22:00:45 22° NNW 22:02:15 10° NNW visible
19 Aug ? 20:15:15 12° NE 20:15:15 12° NE 20:16:01 10° NE visible
19 Aug ? 21:50:34 23° NNW 21:50:34 23° NNW 21:52:09 10° NNW visible
20 Aug ? 21:40:22 24° NNW 21:40:22 24° NNW 21:42:00 10° NNW visible
21 Aug ? 21:30:10 24° N 21:30:10 24° N 21:31:48 10° N visible
22 Aug ? 21:19:58 23° N 21:19:58 23° N 21:21:33 10° N visible
23 Aug ? 21:09:45 21° NNE 21:09:45 21° NNE 21:11:16 10° N visible
24 Aug ? 20:59:32 19° NNE 20:59:32 19° NNE 21:00:56 10° N visible
